Home   Weather   North Bay   Past weeks

Flag for Canada Past Weather in North Bay, Ontario, Canada — Yesterday and Last 2 Weeks

43 °F

Broken clouds.

Feels Like: 37 °F
Forecast: N/A
Wind: 9 mph from Northwest

Location: North Bay

Current Time: Oct 23, 2016 at 6:11:08 PM

Latest Report: Oct 23, 2016 at 5:00 PM

Visibility: 30 mi

Pressure: 29.80 "Hg

Humidity: 71%

Dew Point: 34 °F

Location of North BayLocation

Past Weather in North Bay — Graph


North Bay Temperature Yesterday

Maximum temperature yesterday: 41 °F (at 3:00 PM)
Minimum temperature yesterday: 32 °F (at 9:00 AM)
Average temperature yesterday: 36 °F

High & Low Weather Summary for the Past Weeks

High70 °F (Oct 12, 3:00 PM)100% (Oct 10, 7:00 AM)30.51 "Hg (Oct 10, 7:00 AM)
Low23 °F (Oct 10, 6:00 AM)40% (Oct 12, 2:00 PM)29.36 "Hg (Oct 18, 12:00 PM)
Average46 °F78%30.03 "Hg
* Reported Oct 8 5:00 PM — Oct 23 5:00 PM, North Bay, Weather by CustomWeather, © 2016

Note: Actual official high and low records may vary slightly from our data, if they occured in-between our weather recording intervals... More about our weather records


North Bay Weather History for the Previous 24 Hours

Scroll right to see more
Time TempWeatherWind HumidityBarometerVisibility
5:00 PM
Sun, Oct 23
43 °FBroken clouds.9 mph71%29.80 "Hg30 mi
4:00 PM43 °FPartly sunny.9 mph76%29.80 "Hg30 mi
3:00 PM43 °FOvercast.13 mph71%29.80 "Hg30 mi
2:00 PM41 °FOvercast.13 mph76%29.80 "Hg30 mi
1:00 PM39 °FOvercast.10 mph75%29.80 "Hg30 mi
12:00 PM39 °FOvercast.13 mph75%29.81 "Hg30 mi
11:00 AM37 °FPartly sunny.13 mph70%29.80 "Hg30 mi
10:00 AM32 °FPartly sunny.7 mph87%29.82 "Hg30 mi
9:00 AM28 °FPassing clouds.8 mph93%29.82 "Hg30 mi
8:00 AM25 °FPassing clouds.6 mph100%29.81 "Hg30 mi
7:00 AM27 °FClear.7 mph86%29.80 "Hg15 mi
6:00 AM27 °FClear.8 mph86%29.78 "Hg9 mi
5:00 AM27 °FClear.9 mph93%29.78 "Hg9 mi
4:00 AM27 °FClear.12 mph93%29.78 "Hg9 mi
3:00 AM28 °FPassing clouds.10 mph86%29.78 "Hg9 mi
2:00 AM28 °FPassing clouds.10 mph86%29.78 "Hg9 mi
1:00 AM30 °FPassing clouds.10 mph80%29.78 "Hg9 mi
12:01 AM32 °FPassing clouds.8 mph75%29.78 "Hg9 mi
11:00 PM
Sat, Oct 22
34 °FPassing clouds.12 mph75%29.78 "Hg9 mi
10:00 PM36 °FPassing clouds.17 mph65%29.79 "Hg15 mi
9:00 PM36 °FPassing clouds.15 mph70%29.80 "Hg15 mi
8:00 PM37 °FPassing clouds.20 mph65%29.80 "Hg15 mi
7:00 PM37 °FPassing clouds.14 mph65%29.81 "Hg30 mi
6:00 PM39 °FPartly sunny.15 mph61%29.80 "Hg30 mi
Weather by CustomWeather, © 2016

See weather overviewHow to use our weather pages